This is the latest recevied weather packets stored in our database for station/object JE6MIQ-13. If no packets are shown the sender has not sent any weather packets the latest 10 day(s).
| Time | Temp. | Humidity | Pressure | Rain* | Wind** | Luminosity | Snow |
|---|---|---|---|---|---|---|---|
| 1777592553 | 18.89° C | 28% | 1010.4 hPa | 0 mm | - | - | - |
| 1777591954 | 18.89° C | 29% | 1010.6 hPa | 0 mm | - | - | - |
| 1777591352 | 18.33° C | 45% | 1010.9 hPa | 0 mm | - | - | - |
| 1777590753 | 17.22° C | 53% | 1010.9 hPa | 0 mm | - | - | - |
| 1777590154 | 16.67° C | 50% | 1011.3 hPa | 0 mm | - | - | - |
| 1777589553 | 16.11° C | 59% | 1011.5 hPa | 0 mm | - | - | - |
| 1777588953 | 15° C | 63% | 1011.5 hPa | 0 mm | - | - | - |
| 1777588352 | 15° C | 64% | 1012 hPa | 0 mm | - | - | - |
| 1777587753 | 13.89° C | 66% | 1012 hPa | 0 mm | - | - | - |
| 1777587154 | 13.33° C | 69% | 1012 hPa | 0 mm | - | - | - |
| 1777586554 | 12.78° C | 71% | 1012 hPa | 0 mm | - | - | - |
| 1777585952 | 12.78° C | 70% | 1011.7 hPa | 0 mm | - | - | - |
| 1777585353 | 12.78° C | 68% | 1011.7 hPa | 0 mm | - | - | - |
| 1777584754 | 12.78° C | 69% | 1011.7 hPa | 0 mm | - | - | - |
| 1777584154 | 12.78° C | 73% | 1011.4 hPa | 0 mm | - | - | - |
| 1777583552 | 13.33° C | 76% | 1011.4 hPa | 0 mm | - | - | - |
| 1777582953 | 12.78° C | 78% | 1011.2 hPa | 0 mm | - | - | - |
| 1777582353 | 12.78° C | 79% | 1011.1 hPa | 0 mm | - | - | - |
| 1777581753 | 12.78° C | 80% | 1011.1 hPa | 0 mm | - | - | - |
| 1777581152 | 12.78° C | 81% | 1010.8 hPa | 0 mm | - | - | - |
| 1777580552 | 13.33° C | 82% | 1010.8 hPa | 0 mm | - | - | - |
| 1777579953 | 13.33° C | 82% | 1010.8 hPa | 0 mm | - | - | - |
| 1777579354 | 13.33° C | 83% | 1010.9 hPa | 0 mm | - | - | - |
| 1777578753 | 13.33° C | 83% | 1010.8 hPa | 0 mm | - | - | - |
| 1777578154 | 13.33° C | 83% | 1010.8 hPa | 0 mm | - | - | - |
* Rain latest hour (hover to see other rain measurements)
** Current wind speed in m/s (hover to see current wind gust speed)